TimeEDT,TemperatureF,Dew PointF,Humidity,Sea Level PressureIn,VisibilityMPH,Wind Direction,Wind SpeedMPH,Gust SpeedMPH,PrecipitationIn,Events,Conditions,WindDirDegrees,DateUTC
12:54 AM,64.0,54.0,70,30.08,10.0,SE,5.8,-,N/A,,Mostly Cloudy,140,2013-05-03 04:54:00
1:54 AM,64.9,54.0,68,30.08,10.0,SSE,12.7,-,N/A,,Mostly Cloudy,150,2013-05-03 05:54:00
2:54 AM,63.0,54.0,72,30.06,10.0,SSE,5.8,-,N/A,,Mostly Cloudy,150,2013-05-03 06:54:00
3:54 AM,62.1,54.0,75,30.06,10.0,SE,8.1,-,N/A,,Mostly Cloudy,130,2013-05-03 07:54:00
4:54 AM,61.0,53.1,75,30.06,10.0,SE,8.1,-,N/A,,Clear,130,2013-05-03 08:54:00
5:54 AM,60.1,52.0,75,30.06,10.0,SE,8.1,-,N/A,,Clear,140,2013-05-03 09:54:00
6:54 AM,60.1,52.0,75,30.07,10.0,SE,8.1,-,N/A,,Clear,140,2013-05-03 10:54:00
7:54 AM,61.0,52.0,72,30.08,10.0,SE,9.2,-,N/A,,Clear,130,2013-05-03 11:54:00
8:54 AM,63.0,53.1,70,30.07,10.0,SE,8.1,-,N/A,,Clear,130,2013-05-03 12:54:00
9:54 AM,66.0,54.0,65,30.06,10.0,SE,9.2,-,N/A,,Clear,140,2013-05-03 13:54:00
10:54 AM,69.1,57.0,65,30.06,10.0,SSE,10.4,-,N/A,,Clear,150,2013-05-03 14:54:00
11:54 AM,71.1,57.0,61,30.05,10.0,ESE,6.9,-,N/A,,Scattered Clouds,120,2013-05-03 15:54:00
12:54 PM,70.0,55.9,61,30.03,10.0,ESE,8.1,-,N/A,,Scattered Clouds,110,2013-05-03 16:54:00
1:54 PM,73.0,55.9,55,30.00,10.0,ESE,11.5,-,N/A,,Scattered Clouds,120,2013-05-03 17:54:00
2:54 PM,73.9,55.9,53,29.98,10.0,ESE,15.0,-,N/A,,Partly Cloudy,110,2013-05-03 18:54:00
3:54 PM,75.0,55.9,51,29.96,10.0,ESE,15.0,19.6,N/A,,Partly Cloudy,120,2013-05-03 19:54:00
4:54 PM,75.9,55.9,50,29.95,10.0,ESE,10.4,-,N/A,,Partly Cloudy,110,2013-05-03 20:54:00
5:54 PM,75.0,53.1,46,29.94,10.0,SSE,12.7,20.7,N/A,,Partly Cloudy,150,2013-05-03 21:54:00
6:54 PM,73.0,52.0,48,29.94,10.0,SE,6.9,-,N/A,,Clear,140,2013-05-03 22:54:00
7:54 PM,71.6,51.8,50,29.95,10.0,ESE,13.8,-,N/A,,Clear,110,2013-05-03 23:54:00
8:54 PM,70.0,41.0,35,29.94,10.0,ESE,13.8,20.7,N/A,,Clear,110,2013-05-04 00:54:00
9:54 PM,68.0,41.0,37,29.95,10.0,ESE,9.2,-,N/A,,Clear,120,2013-05-04 01:54:00
10:54 PM,66.9,39.9,37,29.96,10.0,ESE,13.8,20.7,N/A,,Clear,110,2013-05-04 02:54:00
11:54 PM,66.0,39.9,38,29.96,10.0,ESE,15.0,19.6,N/A,,Clear,120,2013-05-04 03:54:00